Tracking 17141 objects as of 6-July-2015
HD Live streaming from Space Station

BREEZE-M DEB

Track BREEZE-M DEB now!
10-day predictions
BREEZE-M DEB is classified as:


NORAD ID: 34254
Int'l Code: 2006-006BV
Perigee: 422.6 km
Apogee: 12,580.4 km
Inclination: 51.7 °
Period: 242.2 minutes
Semi major axis: 12872 km
RCS: 0.033 m2 (small)
Launch date: February 28, 2006
Source: Commonwealth of Independent States (former USSR) (CIS)

Note: This is SATELLITE DEBRIS
Your satellite tracking list
Your tracking list is empty





NASA's NSSDC Master Catalog

Two Line Element Set (TLE):
1 34254U 06006BV  15186.51702373  .00042501  00000-0  26172-1 0  9990
2 34254 051.6668 000.6308 4722417 164.3995 152.0753 05.94440926143041

Source of the keplerian elements: AFSPC

N2YO: 251